DH1NAI-6 Weather Reports


Display with metric or nautical units.
time (UTC)temp
F
wind
direction
speed
MPH
gust
MPH
rain 1hr
in
rain 24hr
in
rain mn
in
humidity
%
barometer
mb
20260506175201 57 165 1.0 1.0 0.00 0.03 0.00 85 1003.7
20260506174152 57 163 0.0 0.0 0.00 0.03 0.00 82 1003.8
20260506173145 58 164 0.0 0.0 0.00 0.03 0.00 82 1003.7
20260506172132 58 183 0.0 0.0 0.00 0.03 0.00 81 1003.4
20260506171129 59 200 0.0 1.0 0.00 0.03 0.00 79 1003.5
20260506170120 59 234 0.0 1.0 0.00 0.03 0.00 77 1003.3
20260506165056 60 177 0.0 0.0 0.00 0.03 0.00 76 1003.2
20260506164033 60 180 1.0 1.0 0.00 0.03 0.00 74 1003.2
20260506163024 60 165 0.0 0.0 0.00 0.03 0.00 73 1003.6
20260506162017 60 157 0.0 0.0 0.00 0.03 0.00 73 1003.5
20260506161008 60 208 1.0 1.0 0.00 0.03 0.00 71 1003.4
20260506160001 61 179 0.0 0.0 0.00 0.03 0.00 72 1003.6
20260506154952 61 11 0.0 0.0 0.00 0.03 0.00 71 1003.4
20260506153945 62 163 1.0 2.0 0.00 0.03 0.00 70 1003.5
20260506152932 63 202 2.0 2.0 0.00 0.03 0.00 68 1003.7
20260506151912 62 131 0.0 0.0 0.00 0.03 0.00 68 1003.7
20260506150904 63 330 1.0 2.0 0.00 0.03 0.00 67 1003.7
20260506145856 62 188 1.0 1.0 0.00 0.03 0.00 69 1003.7
20260506144833 62 184 0.0 1.0 0.00 0.03 0.00 68 1003.9
20260506143824 63 244 2.0 3.0 0.00 0.03 0.00 67 1003.8
20260506142817 64 254 1.0 2.0 0.00 0.03 0.00 64 1003.8
20260506141808 63 209 2.0 3.0 0.00 0.03 0.00 65 1003.9
20260506140801 63 147 0.0 1.0 0.00 0.03 0.00 69 1003.8
20260506135752 63 181 3.0 4.0 0.00 0.03 0.00 67 1003.8
20260506134745 62 186 3.0 4.0 0.00 0.03 0.00 67 1003.7
20260506133736 62 183 1.0 1.0 0.00 0.03 0.00 69 1003.9
20260506132729 62 116 1.0 1.0 0.00 0.03 0.00 71 1004.1
20260506131720 62 136 0.0 0.0 0.00 0.03 0.00 72 1004.3
20260506130657 62 219 1.0 2.0 0.00 0.03 0.00 73 1004.0
20260506125648 62 273 5.0 6.0 0.00 0.03 0.00 72 1004.3
20260506124624 62 242 0.0 1.0 0.00 0.03 0.00 70 1004.3
20260506123617 62 173 1.0 3.0 0.00 0.03 0.00 71 1004.3
20260506122608 62 115 1.0 2.0 0.00 0.03 0.00 71 1004.4
20260506121601 61 273 0.0 0.0 0.00 0.03 0.00 76 1004.4
20260506120552 60 288 1.0 2.0 0.00 0.03 0.00 76 1004.2
20260506115545 60 146 0.0 1.0 0.00 0.03 0.00 76 1004.4
20260506114532 61 191 2.0 3.0 0.00 0.03 0.00 74 1004.5
20260506113529 61 100 0.0 1.0 0.00 0.03 0.00 76 1004.5
20260506112520 59 114 0.0 1.0 0.00 0.03 0.00 79 1004.4
20260506111456 58 170 0.0 1.0 0.00 0.03 0.00 83 1004.6
20260506110448 58 276 0.0 0.0 0.00 0.03 0.00 84 1004.5
20260506105424 57 170 1.0 2.0 0.00 0.03 0.00 85 1004.6
20260506104417 58 183 4.0 4.0 0.00 0.03 0.00 84 1004.6
20260506103409 58 131 0.0 1.0 0.00 0.03 0.00 84 1004.5
20260506102401 58 187 1.0 1.0 0.00 0.03 0.00 85 1004.5
20260506101352 57 143 0.0 1.0 0.00 0.03 0.00 86 1004.6
20260506100345 56 151 0.0 0.0 0.00 0.03 0.00 86 1004.7
20260506095332 58 193 3.0 4.0 0.00 0.03 0.00 85 1004.5
20260506094329 60 144 2.0 3.0 0.00 0.03 0.00 83 1004.4
20260506093320 57 266 1.0 2.0 0.00 0.03 0.00 88 1004.5
20260506092256 57 163 3.0 4.0 0.00 0.03 0.00 88 1004.4
20260506091249 56 289 1.0 2.0 0.00 0.03 0.00 89 1004.7
20260506090224 55 184 1.0 1.0 0.00 0.03 0.00 91 1004.4
20260506085217 55 188 2.0 3.0 0.00 0.03 0.00 91 1004.3
20260506084209 55 161 3.0 3.0 0.00 0.03 0.00 91 1004.2
20260506083201 55 259 3.0 4.0 0.00 0.03 0.00 91 1004.3
20260506082153 55 334 1.0 2.0 0.00 0.03 0.00 91 1004.2
20260506081145 54 271 2.0 3.0 0.00 0.03 0.00 95 1004.2
20260506080132 53 179 1.0 1.0 0.00 0.03 0.00 96 1004.0
20260506073113 53 87 1.0 1.0 0.00 0.03 0.00 97 1003.9
20260506072105 54 191 0.0 1.0 0.00 0.03 0.00 98 1003.8
20260506071057 53 184 2.0 2.0 0.00 0.03 0.00 98 1003.8
20260506062017 51 12 1.0 3.0 0.00 0.03 0.00 99 1004.0
20260506060953 51 243 2.0 4.0 0.00 0.03 0.00 99 1004.0
20260506044849 50 184 2.0 3.0 0.00 0.03 0.00 99 1004.0
20260506043841 50 31 1.0 1.0 0.00 0.03 0.00 99 1003.8
20260506042833 50 179 1.0 1.0 0.00 0.03 0.00 99 1003.6
20260506041825 50 19 3.0 3.0 0.00 0.03 0.00 99 1003.8
20260506040818 50 233 1.0 2.0 0.00 0.03 0.00 99 1003.6
20260506035809 50 312 0.0 1.0 0.04 0.02 0.00 99 1003.5
20260506034801 50 280 4.0 4.0 0.04 0.02 0.00 99 1003.5
20260506033753 50 129 1.0 2.0 0.04 0.02 0.00 99 1003.6
20260506032745 50 205 3.0 6.0 0.04 0.02 0.00 99 1003.5
20260506031737 51 193 1.0 1.0 0.00 0.01 0.00 99 1003.5
20260506030729 51 17 0.0 1.0 0.00 0.01 0.00 99 1003.5
20260506025721 51 192 1.0 2.0 0.04 0.01 0.00 99 1003.6
20260506024713 51 182 0.0 0.0 0.04 0.01 0.00 99 1003.7
20260506022657 51 178 1.0 2.0 0.04 0.01 0.00 99 1003.7
20260506021649 51 207 2.0 2.0 0.04 0.01 0.00 99 1003.6
20260506020625 51 144 1.0 1.0 0.04 0.01 0.00 99 1003.9
20260506015617 51 226 1.0 2.0 0.00 0.00 0.00 99 1003.8
20260506014613 51 156 0.0 1.0 0.00 0.00 0.00 99 1003.9
20260506013601 51 246 2.0 3.0 0.00 0.00 0.00 99 1004.0
20260506012553 51 144 0.0 0.0 0.00 0.00 0.00 99 1004.0
20260506011545 51 177 0.0 0.0 0.00 0.00 0.00 99 1004.0
20260506010537 51 104 0.0 0.0 0.00 0.00 0.00 99 1004.0
20260506005529 50 171 1.0 1.0 0.00 0.00 0.00 99 1003.9
20260506004521 51 111 1.0 2.0 0.00 0.00 0.00 99 1004.2
20260506003457 51 164 1.0 1.0 0.00 0.00 0.00 99 1004.1
20260506002449 51 120 0.0 1.0 0.00 0.00 0.00 99 1004.1
20260506001425 51 109 1.0 1.0 0.00 0.00 0.00 99 1004.2
20260506000417 51 18 2.0 2.0 0.00 0.00 0.00 99 1004.5
20260505235409 51 162 1.0 1.0 0.00 0.00 0.00 99 1004.5
20260505234401 51 166 1.0 1.0 0.00 0.00 0.00 99 1004.6
20260505233353 51 156 2.0 3.0 0.00 0.00 0.00 99 1004.5
20260505232345 51 145 0.0 1.0 0.00 0.00 0.00 99 1004.5
20260505231332 51 206 2.0 2.0 0.00 0.00 0.00 99 1004.4
20260505230313 51 173 0.0 0.0 0.00 0.00 0.00 99 1004.3
20260505225306 51 185 1.0 3.0 0.00 0.00 0.00 99 1004.3
20260505224257 51 181 0.0 1.0 0.00 0.00 0.00 99 1004.2
20260505223249 51 186 2.0 2.0 0.00 0.00 0.00 99 1004.2
20260505222225 51 253 2.0 2.0 0.00 0.00 0.00 99 1004.4
20260505221217 51 214 1.0 2.0 0.00 0.00 0.00 99 1004.3
20260505220209 51 213 3.0 4.0 0.00 0.00 0.00 99 1004.5
20260505215201 51 179 0.0 0.0 0.00 0.62 0.00 99 1004.6
20260505214153 51 184 0.0 0.0 0.00 0.62 0.00 99 1004.6
20260505213145 51 129 0.0 0.0 0.00 0.62 0.00 99 1004.6
20260505212132 51 160 1.0 1.0 0.00 0.62 0.00 99 1004.7
20260505211130 51 188 1.0 1.0 0.00 0.62 0.00 99 1004.6
20260505210121 51 171 2.0 2.0 0.00 0.62 0.00 99 1004.9
20260505205057 51 163 2.0 2.0 0.00 0.62 0.00 99 1004.7
20260505204049 51 164 1.0 1.0 0.00 0.62 0.00 99 1004.9
20260505203025 51 308 1.0 1.0 0.00 0.62 0.00 99 1004.8
20260505202017 51 156 0.0 1.0 0.00 0.62 0.00 99 1004.9
20260505201009 50 167 0.0 0.0 0.00 0.62 0.00 99 1004.8
20260505200001 51 186 0.0 1.0 0.04 0.62 0.00 99 1004.4
20260505194953 51 168 0.0 0.0 0.04 0.62 0.00 99 1004.3
20260505193946 51 162 0.0 0.0 0.04 0.62 0.00 99 1004.2
20260505192932 51 176 0.0 0.0 0.04 0.61 0.00 99 1004.0
20260505191929 51 163 0.0 0.0 0.04 0.60 0.00 99 1004.3
20260505190921 51 256 0.0 0.0 0.04 0.58 0.00 99 1004.6
20260505185857 51 98 2.0 2.0 0.04 0.57 0.00 99 1005.0
20260505184849 51 173 0.0 1.0 0.04 0.54 0.00 99 1005.0
20260505183825 52 201 4.0 4.0 0.04 0.50 0.00 99 1004.9
20260505182817 52 188 3.0 4.0 0.04 0.46 0.00 99 1005.3
20260505181809 52 24 2.0 3.0 0.04 0.39 0.00 99 1005.3
20260505180804 52 246 2.0 2.0 0.04 0.36 0.00 99 1005.3